TimeEDT,TemperatureF,Dew PointF,Humidity,Sea Level PressureIn,VisibilityMPH,Wind Direction,Wind SpeedMPH,Gust SpeedMPH,PrecipitationIn,Events,Conditions,WindDirDegrees,DateUTC
12:01 AM,69.8,66.2,88,29.77,10.0,Calm,Calm,-,0.00,Rain,Light Rain,0,2013-09-03 04:01:00
12:53 AM,68.0,66.9,96,29.74,10.0,SW,3.5,-,0.03,Rain,Light Rain,230,2013-09-03 04:53:00
1:53 AM,68.0,66.0,93,29.72,10.0,Calm,Calm,-,0.00,,Clear,0,2013-09-03 05:53:00
2:32 AM,66.2,64.4,94,29.73,2.5,Calm,Calm,-,N/A,,Scattered Clouds,0,2013-09-03 06:32:00
2:39 AM,66.2,64.4,94,29.73,1.2,NNE,3.5,-,N/A,,Mostly Cloudy,20,2013-09-03 06:39:00
2:53 AM,66.0,64.9,96,29.72,0.8,NNW,3.5,-,N/A,,Mist,330,2013-09-03 06:53:00
3:02 AM,64.4,64.4,100,29.73,1.0,East,3.5,-,N/A,,Mist,100,2013-09-03 07:02:00
3:10 AM,66.2,64.4,94,29.73,0.8,Calm,Calm,-,N/A,,Mostly Cloudy,0,2013-09-03 07:10:00
3:18 AM,66.2,64.4,94,29.73,1.2,Calm,Calm,-,N/A,,Mostly Cloudy,0,2013-09-03 07:18:00
3:27 AM,64.4,64.4,100,29.73,0.5,Calm,Calm,-,N/A,Fog,Fog,0,2013-09-03 07:27:00
3:41 AM,64.4,64.4,100,29.73,0.2,Calm,Calm,-,N/A,Fog,Fog,0,2013-09-03 07:41:00
3:53 AM,64.9,64.0,97,29.72,0.2,Calm,Calm,-,N/A,Fog,Fog,0,2013-09-03 07:53:00
4:15 AM,66.2,64.4,94,29.73,0.5,Calm,Calm,-,N/A,Fog,Fog,0,2013-09-03 08:15:00
4:39 AM,66.2,64.4,94,29.74,2.0,Calm,Calm,-,N/A,,Overcast,0,2013-09-03 08:39:00
4:53 AM,66.0,64.9,96,29.72,7.0,Calm,Calm,-,N/A,,Overcast,0,2013-09-03 08:53:00
5:04 AM,64.4,64.4,100,29.74,10.0,Calm,Calm,-,N/A,,Overcast,0,2013-09-03 09:04:00
5:29 AM,66.2,64.4,94,29.74,10.0,Calm,Calm,-,N/A,,Overcast,0,2013-09-03 09:29:00
5:53 AM,64.9,64.9,100,29.74,10.0,Calm,Calm,-,N/A,,Overcast,0,2013-09-03 09:53:00
6:23 AM,64.4,64.4,100,29.76,10.0,Calm,Calm,-,N/A,,Overcast,0,2013-09-03 10:23:00
6:53 AM,66.0,64.9,96,29.75,3.0,Calm,Calm,-,N/A,,Overcast,0,2013-09-03 10:53:00
7:01 AM,66.2,64.4,94,29.77,10.0,Calm,Calm,-,N/A,,Overcast,0,2013-09-03 11:01:00
7:22 AM,66.2,64.4,94,29.77,3.0,Calm,Calm,-,N/A,,Overcast,0,2013-09-03 11:22:00
7:35 AM,66.2,64.4,94,29.77,3.0,Calm,Calm,-,N/A,,Overcast,0,2013-09-03 11:35:00
7:53 AM,66.9,64.9,93,29.77,3.0,Calm,Calm,-,N/A,,Overcast,0,2013-09-03 11:53:00
8:05 AM,66.2,64.4,94,29.78,10.0,NNW,3.5,-,N/A,,Overcast,330,2013-09-03 12:05:00
8:13 AM,66.2,64.4,94,29.78,10.0,Calm,Calm,-,N/A,,Overcast,0,2013-09-03 12:13:00
8:53 AM,68.0,64.9,90,29.78,10.0,Calm,Calm,-,N/A,,Overcast,0,2013-09-03 12:53:00
9:16 AM,68.0,64.4,88,29.79,10.0,Calm,Calm,-,N/A,,Overcast,0,2013-09-03 13:16:00
9:53 AM,68.0,66.0,93,29.79,10.0,Calm,Calm,-,N/A,,Overcast,0,2013-09-03 13:53:00
10:53 AM,69.1,66.0,90,29.79,4.0,North,4.6,-,N/A,,Overcast,360,2013-09-03 14:53:00
11:13 AM,69.8,64.4,83,29.80,10.0,NW,3.5,-,N/A,,Overcast,320,2013-09-03 15:13:00
11:30 AM,69.8,64.4,83,29.80,10.0,NNW,5.8,-,N/A,,Overcast,340,2013-09-03 15:30:00
11:53 AM,69.1,64.9,87,29.79,10.0,NW,8.1,-,N/A,,Overcast,320,2013-09-03 15:53:00
12:07 PM,69.8,64.4,83,29.80,10.0,NNW,6.9,-,N/A,,Overcast,340,2013-09-03 16:07:00
12:45 PM,68.0,64.4,88,29.80,4.0,NNW,8.1,-,N/A,,Overcast,330,2013-09-03 16:45:00
12:53 PM,68.0,64.9,90,29.79,3.0,North,4.6,-,0.00,Rain,Light Rain,350,2013-09-03 16:53:00
1:09 PM,68.0,66.2,94,29.80,9.0,East,3.5,-,0.00,,Overcast,80,2013-09-03 17:09:00
1:18 PM,69.8,64.4,83,29.80,10.0,NNE,3.5,-,0.00,,Overcast,30,2013-09-03 17:18:00
1:31 PM,71.6,64.4,78,29.80,10.0,Calm,Calm,-,0.00,,Overcast,0,2013-09-03 17:31:00
1:53 PM,72.0,66.0,81,29.78,10.0,NE,3.5,-,0.00,,Scattered Clouds,50,2013-09-03 17:53:00
2:53 PM,75.9,64.9,69,29.76,10.0,Calm,Calm,-,N/A,,Partly Cloudy,0,2013-09-03 18:53:00
3:53 PM,75.9,63.0,64,29.75,10.0,North,3.5,-,N/A,,Mostly Cloudy,360,2013-09-03 19:53:00
4:53 PM,78.1,55.9,46,29.76,10.0,West,15.0,18.4,N/A,,Scattered Clouds,280,2013-09-03 20:53:00
5:53 PM,75.0,54.0,48,29.78,10.0,WNW,10.4,-,N/A,,Scattered Clouds,290,2013-09-03 21:53:00
6:53 PM,72.0,55.9,57,29.80,10.0,West,11.5,-,N/A,,Overcast,280,2013-09-03 22:53:00
7:53 PM,70.0,57.0,63,29.81,10.0,West,4.6,-,N/A,,Overcast,260,2013-09-03 23:53:00
8:53 PM,66.9,57.0,70,29.84,10.0,West,5.8,-,N/A,,Partly Cloudy,280,2013-09-04 00:53:00
9:53 PM,64.9,57.9,78,29.86,10.0,Calm,Calm,-,N/A,,Clear,0,2013-09-04 01:53:00
10:53 PM,60.1,57.9,93,29.86,10.0,Calm,Calm,-,N/A,,Clear,0,2013-09-04 02:53:00
11:53 PM,61.0,57.0,87,29.86,10.0,Calm,Calm,-,N/A,,Clear,0,2013-09-04 03:53:00